TimeCST,TemperatureF,Dew PointF,Humidity,Sea Level PressureIn,VisibilityMPH,Wind Direction,Wind SpeedMPH,Gust SpeedMPH,PrecipitationIn,Events,Conditions,WindDirDegrees,DateUTC
12:15 AM,32.0,10.4,41,30.22,10.0,SSW,4.6,-,N/A,,Clear,210,2012-12-12 06:15:00
12:35 AM,32.0,8.6,38,30.21,10.0,SSW,4.6,-,N/A,,Clear,210,2012-12-12 06:35:00
12:55 AM,32.0,8.6,38,30.21,10.0,SW,3.5,-,N/A,,Clear,220,2012-12-12 06:55:00
1:15 AM,32.0,8.6,38,30.22,10.0,Calm,Calm,-,N/A,,Clear,0,2012-12-12 07:15:00
1:35 AM,32.0,8.6,38,30.22,10.0,SSW,3.5,-,N/A,,Clear,210,2012-12-12 07:35:00
1:55 AM,32.0,6.8,35,30.22,10.0,SW,3.5,-,N/A,,Clear,230,2012-12-12 07:55:00
2:15 AM,32.0,6.8,35,30.22,10.0,SW,3.5,-,N/A,,Clear,220,2012-12-12 08:15:00
2:35 AM,32.0,6.8,35,30.22,10.0,SW,4.6,-,N/A,,Clear,220,2012-12-12 08:35:00
2:55 AM,32.0,6.8,35,30.22,10.0,SW,3.5,-,N/A,,Clear,220,2012-12-12 08:55:00
3:15 AM,32.0,6.8,35,30.22,10.0,SW,3.5,-,N/A,,Clear,220,2012-12-12 09:15:00
3:55 AM,32.0,6.8,35,30.21,10.0,SW,3.5,-,N/A,,Clear,230,2012-12-12 09:55:00
4:15 AM,32.0,6.8,35,30.21,10.0,SW,3.5,-,N/A,,Clear,220,2012-12-12 10:15:00
4:35 AM,32.0,6.8,35,30.22,10.0,SW,3.5,-,N/A,,Clear,220,2012-12-12 10:35:00
4:55 AM,28.4,8.6,43,30.22,10.0,Calm,Calm,-,N/A,,Clear,0,2012-12-12 10:55:00
5:35 AM,28.4,8.6,43,30.24,10.0,Calm,Calm,-,N/A,,Clear,0,2012-12-12 11:35:00
6:45 AM,24.8,15.8,69,30.26,10.0,Calm,Calm,-,N/A,,Clear,0,2012-12-12 12:45:00
7:45 AM,24.8,14.0,64,30.28,10.0,Calm,Calm,-,N/A,,Clear,0,2012-12-12 13:45:00
8:45 AM,35.6,14.0,41,30.30,10.0,Calm,Calm,-,N/A,,Clear,0,2012-12-12 14:45:00
9:51 AM,39.2,14.0,36,30.31,10.0,Calm,Calm,-,N/A,,Clear,0,2012-12-12 15:51:00
10:46 AM,44.6,15.8,31,30.30,10.0,SE,6.9,-,N/A,,Clear,130,2012-12-12 16:46:00
11:45 AM,46.4,14.0,27,30.29,10.0,SE,6.9,-,N/A,,Clear,130,2012-12-12 17:45:00
1:45 PM,50.0,14.0,24,30.23,10.0,South,5.8,-,N/A,,Clear,180,2012-12-12 19:45:00
2:45 PM,50.0,12.2,22,30.23,10.0,SE,8.1,-,N/A,,Clear,140,2012-12-12 20:45:00
3:56 PM,50.0,10.4,20,30.24,10.0,SE,10.4,-,N/A,,Clear,140,2012-12-12 21:56:00
4:48 PM,46.4,10.4,23,30.24,10.0,SSE,6.9,-,N/A,,Clear,160,2012-12-12 22:48:00
5:45 PM,42.8,10.4,27,30.24,10.0,SSE,8.1,-,N/A,,Clear,160,2012-12-12 23:45:00
6:45 PM,41.0,10.4,29,30.23,10.0,SSE,8.1,-,N/A,,Clear,160,2012-12-13 00:45:00
7:45 PM,41.0,10.4,29,30.25,10.0,SSE,9.2,-,N/A,,Clear,160,2012-12-13 01:45:00
8:15 PM,39.2,12.2,33,30.25,10.0,SSE,9.2,-,N/A,,Clear,150,2012-12-13 02:15:00
8:35 PM,37.4,14.0,38,30.24,10.0,SE,9.2,-,N/A,,Clear,140,2012-12-13 02:35:00
8:45 PM,37.4,14.0,38,30.25,10.0,SSE,8.1,-,N/A,,Clear,150,2012-12-13 02:45:00
8:55 PM,37.4,14.0,38,30.25,10.0,SSE,8.1,-,N/A,,Clear,150,2012-12-13 02:55:00
9:15 PM,37.4,14.0,38,30.25,10.0,SSE,8.1,-,N/A,,Clear,150,2012-12-13 03:15:00
9:35 PM,37.4,14.0,38,30.25,10.0,SSE,8.1,-,N/A,,Clear,150,2012-12-13 03:35:00
9:55 PM,37.4,15.8,41,30.26,10.0,SSE,8.1,-,N/A,,Clear,150,2012-12-13 03:55:00
10:15 PM,37.4,14.0,38,30.25,10.0,SSE,9.2,-,N/A,,Clear,150,2012-12-13 04:15:00
10:35 PM,37.4,14.0,38,30.25,10.0,SSE,8.1,-,N/A,,Clear,160,2012-12-13 04:35:00
10:55 PM,35.6,15.8,44,30.25,10.0,SSE,6.9,-,N/A,,Clear,150,2012-12-13 04:55:00
11:15 PM,35.6,15.8,44,30.25,10.0,SE,6.9,-,N/A,,Clear,140,2012-12-13 05:15:00
11:35 PM,35.6,15.8,44,30.25,10.0,SE,8.1,-,N/A,,Clear,140,2012-12-13 05:35:00
11:55 PM,35.6,15.8,44,30.25,10.0,SE,10.4,-,N/A,,Clear,140,2012-12-13 05:55:00